Flag for Russia Weather past 2 weeks in Pyatigorsk, Russia

Now
34 °F

Drizzle. Fog.


Feels Like: 24 °F
Forecast: 31 / 41 °F
Wind: 15 mph from Southeast

Location: Mineral'Nye Vody

Current Time: Mar 30, 2015 at 4:04:20 AM

Latest Report: Mar 30, 2015 at 3:30 AM


Visibility: 3 mi

Pressure: 29.95 "Hg

Humidity: 100%

Dew point: 34 °F

Location of PyatigorskLocation

Historic Weather in Pyatigorsk — Graph

°F

Pyatigorsk temperature yesterday

Maximum temperature yesterday: 39 °F (at 12:30 AM)
Minimum temperature yesterday: 34 °F (at 9:30 PM)
Average temperature yesterday: 37 °F

Past Weeks' High & Low Weather Summary

 TemperatureHumidityPressure
High61 °F (Mar 22, 2:00 PM)100% (Mar 15, 2:00 AM)30.39 "Hg (Mar 15, 2:00 AM)
Low30 °F (Mar 17, 4:00 AM)27% (Mar 26, 1:30 PM)29.83 "Hg (Mar 21, 4:00 AM)
Average41 °F82%30.16 "Hg
* Reported Mar 15 2:00 AM — Mar 30 2:00 AM, Pyatigorsk, Weather by CustomWeather, © 2015

Note: Actual official high and low records may vary slightly from our data, if they occured in-between our weather recording intervals... More about our weather records

Advertising

Pyatigorsk weather history for previous 24 hours

 ConditionsComfort  
Time TempWeatherWind HumidityBarometerVisibility
2:00 AM
Mon, Mar 30
34 °FDrizzle. Fog.20 mph100%29.98 "Hg2 mi
1:30 AM34 °FDrizzle. Fog.20 mph100%29.98 "Hg2 mi
1:00 AM34 °FDrizzle. Fog.20 mph100%30.01 "Hg2 mi
12:30 AM34 °FDrizzle. Fog.17 mph100%30.01 "Hg2 mi
12:00 AM34 °FDrizzle. Fog.17 mph100%30.01 "Hg2 mi
11:30 PM
Sun, Mar 29
34 °FDrizzle. Fog.17 mph100%30.04 "Hg2 mi
11:00 PM34 °FDrizzle. Fog.17 mph100%30.04 "Hg2 mi
10:30 PM34 °FDrizzle. Fog.17 mph100%30.07 "Hg2 mi
10:00 PM34 °FDrizzle. Fog.20 mph100%30.04 "Hg2 mi
9:30 PM34 °FDrizzle. Fog.20 mph100%30.07 "Hg2 mi
9:00 PM36 °FDrizzle. Fog.20 mph93%30.09 "Hg2 mi
8:30 PM36 °FDrizzle. Fog.20 mph93%30.09 "Hg2 mi
8:00 PM36 °FDrizzle. Fog.20 mph93%30.09 "Hg2 mi
7:30 PM36 °FDrizzle. Fog.17 mph100%30.07 "Hg2 mi
7:00 PM36 °FDrizzle. Fog.20 mph100%30.07 "Hg2 mi
6:30 PM36 °FDrizzle. Fog.17 mph100%30.07 "Hg2 mi
6:00 PM37 °FDrizzle. Fog.20 mph93%30.07 "Hg2 mi
5:30 PM37 °FDrizzle. Fog.17 mph93%30.09 "Hg2 mi
5:00 PM37 °FDrizzle. Fog.17 mph93%30.07 "Hg2 mi
4:30 PM37 °FDrizzle. Fog.20 mph93%30.07 "Hg2 mi
4:00 PM37 °FDrizzle. Fog.20 mph93%30.09 "Hg2 mi
3:30 PM37 °FDrizzle. Fog.17 mph93%30.09 "Hg3 mi
3:00 PM37 °FDrizzle. Fog.20 mph93%30.09 "Hg3 mi
2:30 PM37 °FDrizzle. Fog.20 mph93%30.09 "Hg3 mi
2:00 PM37 °FDrizzle. Fog.17 mph93%30.09 "Hg3 mi
1:30 PM37 °FDrizzle. Fog.17 mph93%30.12 "Hg3 mi
1:00 PM37 °FDrizzle. Fog.17 mph93%30.12 "Hg2 mi
12:30 PM37 °FDrizzle. Fog.17 mph93%30.12 "Hg2 mi
12:00 PM37 °FDrizzle. Fog.17 mph93%30.12 "Hg2 mi
11:30 AM37 °FDrizzle. Fog.17 mph93%30.12 "Hg3 mi
11:00 AM37 °FDrizzle. Low clouds.17 mph93%30.12 "Hg4 mi
10:30 AM37 °FDrizzle. Mostly cloudy.20 mph100%30.12 "HgN/A
10:00 AM37 °FSprinkles. Mostly cloudy.17 mph100%30.09 "HgN/A
9:30 AM37 °FSprinkles. Fog.20 mph100%30.09 "Hg3 mi
9:00 AM37 °FDrizzle. Fog.17 mph100%30.09 "Hg3 mi
8:30 AM37 °FDrizzle. Fog.15 mph100%30.09 "Hg2 mi
8:00 AM37 °FDrizzle. Fog.15 mph100%30.09 "Hg3 mi
7:30 AM37 °FDrizzle. Fog.15 mph100%30.09 "Hg2 mi
7:00 AM37 °FDrizzle. Fog.15 mph100%30.09 "Hg2 mi
6:30 AM37 °FDrizzle. Fog.10 mph100%30.07 "Hg2 mi
6:00 AM37 °FDrizzle. Fog.15 mph100%30.07 "Hg2 mi
5:30 AM39 °FDrizzle. Fog.15 mph93%30.07 "Hg2 mi
5:00 AM39 °FDrizzle. Fog.17 mph93%30.04 "Hg2 mi
4:30 AM39 °FLight rain. Fog.17 mph100%30.04 "Hg2 mi
4:00 AM39 °FLight rain. Fog.17 mph100%30.01 "Hg3 mi
Weather by CustomWeather, © 2015

See weather overviewHow to use our weather pages